{"data":{"norad_id":54059,"epoch":"2026-05-25T00:01:01.465824Z","epoch_age_seconds":74888,"freshness":"FRESH","line1":"1 54059U 22136J   26145.00071141  .00000133  00000+0  26462-4 0  9999","line2":"2 54059  53.2160   1.5960 0001391  92.8121 267.3030 15.08842841198369","mean_motion":15.08842841,"eccentricity":0.0001391,"inclination_deg":53.216,"raan_deg":1.596,"arg_perigee_deg":92.8121,"mean_anomaly_deg":267.303,"bstar":2.6462e-5,"rev_number":19836,"period_min":95.437374978406,"perigee_km":538.7724292231,"apogee_km":540.69698113148,"semimajor_km":6917.8717051773,"source":"CELESTRAK","updated_at":"2026-05-25T13:38:17.647626Z"}}